CW1988 Weather Reports


Display with metric or nautical units.
time (UTC)temp
F
wind
direction
speed
MPH
gust
MPH
rain 1hr
in
rain 24hr
in
rain mn
in
humidity
%
barometer
mb
20260502224327 56 181 1.0 1.0 0.00 0.00 0.00 42 1016.2
20260502223825 56 181 0.0 0.0 0.00 0.00 0.00 42 1016.2
20260502223323 57 181 0.0 0.0 0.00 0.00 0.00 40 1016.2
20260502222815 57 181 0.0 0.0 0.00 0.00 0.00 40 1016.1
20260502222312 56 181 0.0 0.0 0.00 0.00 0.00 43 1016.1
20260502221808 56 181 1.0 2.0 0.00 0.00 0.00 38 1016.3
20260502221304 56 181 0.0 1.0 0.00 0.00 0.00 40 1016.3
20260502220801 57 181 0.0 0.0 0.00 0.00 0.00 38 1016.4
20260502220256 58 181 0.0 0.0 0.00 0.00 0.00 40 1016.4
20260502215753 58 181 0.0 0.0 0.00 0.00 0.00 39 1016.4
20260502215250 57 181 0.0 0.0 0.00 0.00 0.00 41 1016.5
20260502214747 57 181 0.0 0.0 0.00 0.00 0.00 40 1016.4
20260502214244 57 181 0.0 0.0 0.00 0.00 0.00 39 1016.4
20260502213742 57 181 0.0 0.0 0.00 0.00 0.00 36 1016.4
20260502213239 58 181 0.0 1.0 0.00 0.00 0.00 35 1016.6
20260502212738 58 181 0.0 0.0 0.00 0.00 0.00 37 1016.6
20260502212235 58 181 0.0 0.0 0.00 0.00 0.00 40 1016.6
20260502211731 58 181 0.0 0.0 0.00 0.00 0.00 37 1016.6
20260502211228 59 181 0.0 0.0 0.00 0.00 0.00 41 1016.6
20260502210725 59 181 0.0 0.0 0.00 0.00 0.00 40 1016.6
20260502210222 59 181 0.0 0.0 0.00 0.00 0.00 39 1017.0
20260502205720 58 181 0.0 0.0 0.00 0.00 0.00 39 1016.9
20260502205216 58 181 0.0 0.0 0.00 0.00 0.00 39 1016.9
20260502204713 57 181 0.0 0.0 0.00 0.00 0.00 38 1017.0
20260502204211 58 181 0.0 0.0 0.00 0.00 0.00 42 1017.0
20260502203708 58 181 0.0 0.0 0.00 0.00 0.00 37 1017.1
20260502203201 58 181 0.0 0.0 0.00 0.00 0.00 42 1017.3
20260502202659 57 181 0.0 0.0 0.00 0.00 0.00 41 1017.3
20260502202158 57 181 1.0 1.0 0.00 0.00 0.00 41 1017.2
20260502201655 57 181 0.0 0.0 0.00 0.00 0.00 37 1017.3
20260502201147 57 181 0.0 1.0 0.00 0.00 0.00 36 1017.2
20260502200642 57 181 0.0 0.0 0.00 0.00 0.00 37 1017.7
20260502200139 56 181 0.0 1.0 0.00 0.00 0.00 39 1017.6
20260502195637 55 181 0.0 0.0 0.00 0.00 0.00 38 1017.7
20260502195133 56 181 1.0 1.0 0.00 0.00 0.00 38 1017.7
20260502194630 55 181 0.0 1.0 0.00 0.00 0.00 36 1017.8
20260502194126 55 181 0.0 0.0 0.00 0.00 0.00 41 1017.9
20260502193623 55 181 0.0 0.0 0.00 0.00 0.00 38 1018.1
20260502193120 55 181 0.0 0.0 0.00 0.00 0.00 40 1018.1
20260502192615 55 181 0.0 0.0 0.00 0.00 0.00 38 1018.2
20260502192113 54 181 0.0 0.0 0.00 0.00 0.00 41 1018.3
20260502191609 54 181 0.0 0.0 0.00 0.00 0.00 38 1018.3
20260502191102 54 181 0.0 0.0 0.00 0.00 0.00 37 1018.3
20260502190559 54 181 0.0 0.0 0.00 0.00 0.00 40 1018.3
20260502190055 55 181 1.0 2.0 0.00 0.00 0.00 38 1018.5
20260502185545 55 181 0.0 0.0 0.00 0.00 0.00 42 1018.7
20260502185042 56 181 0.0 1.0 0.00 0.00 0.00 39 1018.5
20260502184538 56 181 0.0 0.0 0.00 0.00 0.00 39 1018.8
20260502184034 55 181 0.0 1.0 0.00 0.00 0.00 42 1018.8
20260502183531 56 181 0.0 0.0 0.00 0.00 0.00 37 1018.7
20260502183027 56 181 0.0 1.0 0.00 0.00 0.00 38 1018.7
20260502182521 56 181 0.0 0.0 0.00 0.00 0.00 36 1018.8
20260502182018 56 181 0.0 1.0 0.00 0.00 0.00 37 1019.0
20260502181516 55 181 1.0 1.0 0.00 0.00 0.00 41 1019.0
20260502181014 55 181 0.0 1.0 0.00 0.00 0.00 43 1019.0
20260502180510 55 181 0.0 1.0 0.00 0.00 0.00 41 1019.0
20260502170429 53 181 0.0 0.0 0.00 0.00 0.00 38 1019.7
20260502163913 53 181 0.0 0.0 0.00 0.00 0.00 43 1019.8
20260502163409 53 181 0.0 0.0 0.00 0.00 0.00 40 1019.8
20260502162907 53 181 0.0 0.0 0.00 0.00 0.00 43 1020.1
20260502162403 53 181 0.0 0.0 0.00 0.00 0.00 47 1020.0
20260502161900 52 181 1.0 2.0 0.00 0.00 0.00 44 1020.0
20260502161356 52 181 1.0 1.0 0.00 0.00 0.00 44 1020.2
20260502160854 52 181 0.0 0.0 0.00 0.00 0.00 41 1020.0
20260502160353 52 181 1.0 1.0 0.00 0.00 0.00 48 1020.3
20260502152328 56 180 0.0 0.0 0.00 0.00 0.00 39 1020.4
20260502151825 57 180 0.0 1.0 0.00 0.00 0.00 38 1020.6
20260502151322 56 180 0.0 0.0 0.00 0.00 0.00 39 1020.4
20260502150820 56 180 0.0 0.0 0.00 0.00 0.00 41 1020.5
20260502150316 56 180 0.0 0.0 0.00 0.00 0.00 44 1020.3
20260502130704 45 180 0.0 0.0 0.00 0.00 0.00 72 1020.9
20260502130202 42 181 0.0 0.0 0.00 0.00 0.00 76 1020.8
20260502123647 39 181 0.0 0.0 0.00 0.00 0.00 84 1020.9
20260502123144 39 181 0.0 0.0 0.00 0.00 0.00 84 1020.9
20260502122641 39 181 0.0 0.0 0.00 0.00 0.00 83 1020.9
20260502122137 39 181 0.0 0.0 0.00 0.00 0.00 82 1020.7
20260502121636 39 181 0.0 0.0 0.00 0.00 0.00 81 1021.0
20260502121133 37 181 0.0 0.0 0.00 0.00 0.00 83 1020.7
20260502120629 36 181 0.0 0.0 0.00 0.00 0.00 84 1021.0
20260502120126 36 181 0.0 0.0 0.00 0.00 0.00 84 1020.9
20260502115624 35 181 0.0 0.0 0.00 0.00 0.00 86 1020.8
20260502115119 33 181 0.0 0.0 0.00 0.00 0.00 90 1020.8
20260502114616 32 181 0.0 0.0 0.00 0.00 0.00 92 1020.9
20260502114113 31 181 0.0 0.0 0.00 0.00 0.00 92 1020.8
20260502113610 31 181 0.0 0.0 0.00 0.00 0.00 93 1020.8
20260502113109 30 181 0.0 0.0 0.00 0.00 0.00 93 1020.7
20260502112606 30 182 0.0 0.0 0.00 0.00 0.00 92 1020.7
20260502112104 30 182 0.0 0.0 0.00 0.00 0.00 92 1020.6
20260502111601 30 182 0.0 0.0 0.00 0.00 0.00 92 1020.6
20260502111058 29 182 0.0 0.0 0.00 0.00 0.00 92 1020.6
20260502110556 29 182 0.0 0.0 0.00 0.00 0.00 92 1020.4
20260502110053 29 182 0.0 0.0 0.00 0.00 0.00 92 1020.7
20260502105550 29 182 0.0 0.0 0.00 0.00 0.00 92 1020.5
20260502105048 29 182 0.0 0.0 0.00 0.00 0.00 92 1020.5
20260502104545 29 182 0.0 0.0 0.00 0.00 0.00 91 1020.7
20260502104042 29 182 0.0 0.0 0.00 0.00 0.00 91 1020.5
20260502103540 29 182 0.0 0.0 0.00 0.00 0.00 91 1020.7
20260502103038 30 182 0.0 0.0 0.00 0.00 0.00 91 1020.5
20260502102534 29 182 0.0 0.0 0.00 0.00 0.00 92 1020.6
20260502102031 29 182 0.0 0.0 0.00 0.00 0.00 91 1020.5
20260502101529 29 182 0.0 0.0 0.00 0.00 0.00 91 1020.5
20260502101027 29 182 0.0 0.0 0.00 0.00 0.00 91 1020.5
20260502100525 29 182 0.0 0.0 0.00 0.00 0.00 91 1020.6
20260502091500 29 181 0.0 0.0 0.00 0.00 0.00 90 1020.3
20260502090957 29 181 0.0 0.0 0.00 0.00 0.00 90 1020.4
20260502090454 29 181 0.0 0.0 0.00 0.00 0.00 89 1020.6
20260502071348 30 181 0.0 0.0 0.00 0.00 0.00 89 1020.4
20260502070847 30 181 0.0 0.0 0.00 0.00 0.00 88 1020.3
20260502070344 30 181 0.0 0.0 0.00 0.00 0.00 87 1020.4
20260502065843 30 181 0.0 0.0 0.00 0.00 0.00 88 1020.4
20260502065340 30 181 0.0 0.0 0.00 0.00 0.00 87 1020.4
20260502064838 31 181 0.0 0.0 0.00 0.00 0.00 87 1020.3
20260502064336 31 181 0.0 0.0 0.00 0.00 0.00 87 1020.5
20260502063833 30 181 0.0 0.0 0.00 0.00 0.00 87 1020.6
20260502063331 30 181 0.0 0.0 0.00 0.00 0.00 87 1020.5
20260502062828 30 181 0.0 0.0 0.00 0.00 0.00 87 1020.8
20260502062325 30 181 0.0 0.0 0.00 0.00 0.00 87 1020.8
20260502061824 30 181 0.0 0.0 0.00 0.00 0.00 88 1020.8
20260502061321 30 181 0.0 0.0 0.00 0.00 0.00 87 1020.6
20260502060817 30 181 0.0 0.0 0.00 0.00 0.00 87 1020.8
20260502060312 30 181 0.0 0.0 0.00 0.00 0.00 87 1020.9
20260502055810 30 181 0.0 0.0 0.00 0.00 0.00 86 1020.7
20260502055308 31 181 0.0 0.0 0.00 0.00 0.00 86 1020.7
20260502054807 31 181 0.0 0.0 0.00 0.00 0.00 86 1020.7
20260502054304 31 181 0.0 0.0 0.00 0.00 0.00 86 1020.8
20260502053801 31 181 0.0 0.0 0.00 0.00 0.00 86 1020.7
20260502053259 31 181 0.0 0.0 0.00 0.00 0.00 85 1020.7
20260502052756 31 181 0.0 0.0 0.00 0.00 0.00 85 1020.7
20260502052254 31 181 0.0 0.0 0.00 0.00 0.00 84 1020.9
20260502051752 32 181 0.0 0.0 0.00 0.00 0.00 86 1020.9
20260502051250 32 181 0.0 0.0 0.00 0.00 0.00 85 1020.5
20260502050746 32 181 0.0 0.0 0.00 0.00 0.00 85 1020.6
20260502050242 32 181 0.0 0.0 0.00 0.00 0.00 85 1020.5
20260502045740 32 181 0.0 0.0 0.00 0.00 0.00 85 1020.6
20260502045236 32 181 0.0 0.0 0.00 0.00 0.00 85 1020.7
20260502044733 32 181 0.0 0.0 0.00 0.00 0.00 85 1020.5
20260502044229 32 181 0.0 0.0 0.00 0.00 0.00 84 1020.5
20260502043727 32 181 0.0 0.0 0.00 0.00 0.00 83 1020.6
20260502043225 32 181 0.0 0.0 0.00 0.00 0.00 83 1020.7
20260502042724 33 181 0.0 0.0 0.00 0.00 0.00 83 1020.5
20260502042221 33 181 0.0 0.0 0.00 0.00 0.00 83 1020.5
20260502041719 33 181 0.0 0.0 0.00 0.00 0.00 83 1020.6
20260502041216 33 181 0.0 0.0 0.00 0.00 0.00 83 1020.6
20260502040713 33 181 0.0 0.0 0.00 0.00 0.00 82 1020.6
20260502040210 33 181 0.0 0.0 0.00 0.00 0.00 82 1020.6
20260502035706 33 181 0.0 0.0 0.00 0.00 0.00 81 1020.5
20260502035203 33 181 0.0 0.0 0.00 0.00 0.00 81 1020.5
20260502034700 34 181 0.0 0.0 0.00 0.00 0.00 81 1020.5
20260502034159 34 181 0.0 0.0 0.00 0.00 0.00 82 1020.5
20260502033656 34 181 0.0 0.0 0.00 0.00 0.00 82 1020.3
20260502033154 34 181 0.0 0.0 0.00 0.00 0.00 81 1020.4
20260502032650 34 181 0.0 0.0 0.00 0.00 0.00 80 1020.5
20260502032146 34 181 0.0 0.0 0.00 0.00 0.00 79 1020.5
20260502031644 35 181 0.0 0.0 0.00 0.00 0.00 79 1020.6
20260502031142 35 181 0.0 0.0 0.00 0.00 0.00 79 1020.4
20260502030640 35 181 0.0 0.0 0.00 0.00 0.00 79 1020.2
20260502030138 35 181 0.0 0.0 0.00 0.00 0.00 79 1020.3
20260502025635 35 181 0.0 0.0 0.00 0.00 0.00 78 1020.3
20260502025133 36 181 0.0 0.0 0.00 0.00 0.00 77 1020.3
20260502024631 36 181 0.0 0.0 0.00 0.00 0.00 77 1020.1
20260502024128 36 181 0.0 0.0 0.00 0.00 0.00 76 1020.3
20260502023626 36 181 0.0 0.0 0.00 0.00 0.00 75 1020.1
20260502023123 37 181 0.0 0.0 0.00 0.00 0.00 74 1020.2
20260502022620 37 181 0.0 0.0 0.00 0.00 0.00 73 1020.4
20260502022117 37 181 0.0 0.0 0.00 0.00 0.00 73 1020.2
20260502021614 38 181 0.0 0.0 0.00 0.00 0.00 70 1020.3
20260502021111 38 181 0.0 0.0 0.00 0.00 0.00 71 1020.2
20260502020609 38 181 0.0 0.0 0.00 0.00 0.00 70 1020.3
20260502020105 39 181 0.0 0.0 0.00 0.00 0.00 70 1020.2
20260502015603 39 181 0.0 0.0 0.00 0.00 0.00 69 1020.0
20260502015100 39 181 0.0 0.0 0.00 0.00 0.00 68 1020.0
20260502014557 39 181 0.0 0.0 0.00 0.00 0.00 70 1020.1
20260502014054 39 181 0.0 0.0 0.00 0.00 0.00 69 1020.0
20260502013549 39 181 0.0 0.0 0.00 0.00 0.00 69 1019.8
20260502013046 39 181 0.0 0.0 0.00 0.00 0.00 67 1019.8
20260502012543 39 181 0.0 0.0 0.00 0.00 0.00 67 1019.7
20260502012041 40 181 0.0 0.0 0.00 0.00 0.00 68 1020.0
20260502011537 40 181 0.0 0.0 0.00 0.00 0.00 67 1020.0
20260502011033 40 181 0.0 0.0 0.00 0.00 0.00 68 1019.6
20260502010531 40 181 0.0 0.0 0.00 0.00 0.00 66 1019.6
20260502010027 40 181 0.0 0.0 0.00 0.00 0.00 66 1019.6
20260502005525 40 181 0.0 0.0 0.00 0.00 0.00 67 1019.6
20260502005023 40 181 0.0 0.0 0.00 0.00 0.00 65 1019.7
20260502004518 40 181 0.0 0.0 0.00 0.00 0.00 63 1019.5
20260502004015 40 181 0.0 0.0 0.00 0.00 0.00 64 1019.3
20260502003513 40 181 0.0 0.0 0.00 0.00 0.00 64 1019.5
20260502003009 41 181 0.0 0.0 0.00 0.00 0.00 65 1019.2
20260502002506 41 181 0.0 0.0 0.00 0.00 0.00 65 1019.3
20260502002004 41 181 0.0 0.0 0.00 0.00 0.00 65 1019.3
20260502001501 41 181 0.0 0.0 0.00 0.00 0.00 65 1019.5
20260502000958 41 181 0.0 0.0 0.00 0.00 0.00 64 1019.4
20260502000457 41 181 0.0 0.0 0.00 0.00 0.00 64 1019.3
20260501235953 42 181 0.0 0.0 0.00 0.00 0.00 65 1019.1
20260501235448 42 181 0.0 0.0 0.00 0.00 0.00 64 1019.2
20260501234943 42 181 0.0 0.0 0.00 0.00 0.00 64 1019.2
20260501234440 42 181 0.0 0.0 0.00 0.00 0.00 64 1019.2
20260501233939 42 181 0.0 0.0 0.00 0.00 0.00 63 1019.2
20260501233437 42 181 0.0 0.0 0.00 0.00 0.00 63 1019.0
20260501232932 42 181 0.0 0.0 0.00 0.00 0.00 63 1019.2
20260501232429 42 181 0.0 0.0 0.00 0.00 0.00 61 1019.2
20260501231926 43 181 0.0 0.0 0.00 0.00 0.00 62 1019.2
20260501231425 43 181 0.0 0.0 0.00 0.00 0.00 63 1019.4
20260501230923 43 181 0.0 0.0 0.00 0.00 0.00 62 1019.2
20260501230421 43 181 0.0 0.0 0.00 0.00 0.00 62 1019.4
20260501225918 43 181 0.0 0.0 0.00 0.00 0.00 62 1019.3
20260501225416 43 181 0.0 0.0 0.00 0.00 0.00 62 1019.4
20260501224911 43 181 0.0 0.0 0.00 0.00 0.00 66 1019.2
20260501224409 43 181 0.0 0.0 0.00 0.00 0.00 65 1019.3